sat.trackr.live / text

‹ back to catalog

STARLINK-30158

NORAD 57438 · 2023-105J

PAYLOAD ACTIVE UNKNOWN

§ Identity

Operator
Country
US
Launch date
2023-07-24
Launch site
AFETR
Launch vehicle
Mass (kg)
RCS (m²)

Purposes: comms

External: N2YO · Heavens-Above · Gunter

§ Orbital elements

Epoch: 2026-05-24T19:37:39.406080Z

Period
94.27 min
Inclination
42.9981°
Eccentricity
0.0001577
Mean motion
15.27580547 rev/d
Perigee alt
482.0 km
Apogee alt
484.1 km
Semi-major
6,861.2 km
B*
3.1161e-5
RAAN
190.0051°
Arg perigee
268.2253°
Mean anomaly
91.8418°
Rev number
15,722

§ Raw data

STARLINK-301581 57438U 23105J   26144.81781720  .00000595  00000+0  31161-4 0  99932 57438  42.9981 190.0051 0001577 268.2253  91.8418 15.27580547157228

JSON: /api/v1/satellites/57438 · /tle

For live sub-satellite position, see the globe view (requires WebGL).

§ Visibility from observer

Set your observer location to see the next 7 days of passes ≥ 10°. The values pass through the URL so the page stays shareable.

No JS? Fill the form by hand. The geolocation button needs JavaScript.